CAPE
2912 2926 2778 2648 2696 2720 2478 2493 2598 2303 2118 2056 1793 1595 1850 1722 1826 1955 2061 1917 1925 1908 1780 1456 1395 1378 1286 1163 1375 1519 1178 1482 1590 1705 1521 1467 1519 1121 1127 1382 1251 1060 621 524 482 514 634 717 762 412 559 343 405 462 329 332 306 510 667 232 502 460 200 342 403 147 1 0 0 0 0 0 0 0 0 0 0 0 0 0 0 0 0 0 0
2837 2936 2961 3098 2882 2753 2557 2414 2540 2398 2118 2008 1784 1788 1995 1747 1916 1960 1954 1901 1899 1879 1742 1764 1546 1300 1318 1076 1176 1178 1108 1120 1485 1531 1578 1489 1454 1410 1172 1096 1197 937 760 639 589 363 669 629 369 304 155 537 494 299 333 219 234 241 539 142 402 1283 379 518 126 16 10 0 0 0 0 0 0 0 0 0 0 0 0 0 0 0 0 0 0
2755 2759 3069 3091 3075 2951 2588 2454 2524 2424 2278 1796 1908 1984 2073 1908 1876 1927 1835 1854 1744 1709 1541 1610 1690 1653 1393 1288 1221 1008 977 1259 1154 975 1199 892 1104 987 970 1013 453 398 313 326 406 300 268 239 197 202 90 98 262 534 124 492 169 648 192 238 2 154 324 366 518 654 58 29 21 0 0 0 0 0 0 0 0 0 0 0 0 0 0 0 0
2956 2922 2957 2937 2902 2853 2688 2462 2508 2469 2144 2056 2065 2052 2062 1891 2015 1997 1915 1861 1792 1642 1489 1631 1562 1722 1555 1522 1224 942 1073 952 881 659 708 593 560 520 471 370 328 250 139 244 174 198 236 276 275 236 297 16 95 724 178 52 138 175 377 137 26 0 39 196 116 240 431 196 74 82 37 0 0 0 0 0 0 0 0 0 0 0 0 0 0
2947 2934 2746 2942 2688 2721 2489 2441 2434 2355 2240 2235 2403 2289 2038 2039 2092 2006 1911 1941 1678 1547 1518 1659 1581 1528 1492 1528 1188 940 982 668 541 583 504 435 357 450 398 206 94 116 140 120 22 46 10 16 0 10 15 2 90 17 61 38 137 67 68 310 55 410 1 28 46 14 190 56 0 47 236 201 236 0 0 0 0 0 0 0 0 0 0 0 0
2616 2882 2842 2687 2590 2398 2504 2362 2332 2257 2218 2352 2214 2292 2053 2059 2117 1970 1820 1749 1593 1675 1471 1476 1082 1379 1333 1051 919 837 760 697 611 505 478 304 210 296 71 81 25 32 46 64 1 2 6 0 0 0 0 8 64 10 5 113 45 5 0 3 1 0 0 0 0 0 0 0 0 30 10 191 1 0 0 0 0 0 0 0 0 0 0 0 0
2727 2873 2470 2826 2567 2397 2311 2164 2248 1934 2304 2324 2213 2183 2267 2079 2024 1957 1798 1686 1554 1491 1528 1298 1208 1289 1247 1025 932 904 749 668 769 580 377 283 265 228 127 48 2 32 16 35 1 0 2 0 0 0 0 0 4 34 6 1 0 0 0 0 0 0 0 0 0 0 0 0 0 0 0 0 13 0 0 0 0 0 0 0 0 0 0 0 0
2893 2724 2448 2391 2528 2366 2147 2202 2136 2116 2091 2120 2272 2167 2245 2027 1995 1875 1611 1578 1388 1260 1332 1465 1406 1417 1334 1108 1073 909 715 784 777 494 421 337 174 39 0 18 24 53 20 0 0 0 1 0 0 0 0 0 0 0 0 0 0 0 0 0 0 0 0 17 0 0 0 0 0 0 0 0 0 0 0 0 0 0 0 0 0 0 0 0 0
2706 2740 2409 2303 2415 2358 2164 2156 1976 2036 1754 1944 2126 1619 1750 2191 1956 1742 1679 1537 1484 1238 1280 1440 1493 1541 1358 1118 1112 973 899 816 568 377 317 275 210 36 0 0 98 66 8 0 1 0 0 0 0 0 0 0 0 0 0 0 0 0 0 0 0 0 0 0 0 0 0 0 0 0 0 0 0 0 0 0 0 0 0 0 0 0 0 0 0
1893 2330 2480 2453 2364 2315 2171 2048 2107 2132 1811 1879 1919 1593 1602 2012 1994 1800 1754 1664 1621 1306 1426 1430 1565 1537 1322 1207 1198 1114 898 668 368 177 166 179 87 39 80 175 0 28 2 0 0 0 0 0 0 0 0 0 0 0 0 0 0 0 0 0 0 0 0 0 0 0 0 0 0 0 0 0 0 0 0 0 0 0 0 0 0 0 0 0 0
2293 2118 2110 2212 2321 2280 2203 2230 2113 2181 2057 1979 2069 1624 1734 1648 2055 1876 1792 1748 1785 1541 1547 1508 1590 1397 1368 1315 1254 960 659 491 250 82 45 61 3 12 115 96 14 3 0 0 1 0 0 0 0 0 0 0 0 0 0 0 0 0 0 0 0 0 0 0 0 0 0 0 0 0 0 0 0 0 0 0 0 0 0 0 0 0 0 0 0
2527 2152 1914 1814 2140 2236 2287 2205 2179 2173 2153 2048 2092 1568 1747 1725 2164 1970 1885 1810 1825 1684 1603 1630 1450 1387 1420 1471 1249 883 557 518 420 181 67 29 7 16 57 67 14 2 0 0 0 0 0 0 0 0 0 0 0 0 0 0 0 0 0 0 0 0 0 0 0 0 0 0 0 0 0 0 0 0 0 0 0 0 0 0 0 0 0 0 0
2317 2118 1852 2022 2141 2136 2243 2196 2105 2237 2086 2084 2086 1567 1549 1602 2089 1890 1738 1718 1820 1678 1704 1592 1468 1442 1538 1594 1224 736 597 518 417 322 135 230 10 71 17 5 1 1 6 0 0 4 0 0 0 0 0 0 0 0 0 0 0 0 0 0 0 0 0 0 0 0 0 0 0 0 0 0 0 0 0 0 0 0 0 0 0 0 0 0 0
2138 2146 2022 2023 2135 2126 2126 2090 2050 2294 2194 2158 2061 1609 1404 1303 2016 1815 1723 1671 1714 1682 1651 1545 1653 1555 1681 1293 1150 726 595 488 406 346 329 130 46 15 49 4 0 4 6 4 0 0 0 0 0 0 0 0 0 0 0 0 0 0 0 0 0 0 0 0 0 0 0 0 0 0 0 0 0 0 0 0 0 0 0 0 0 0 0 0 0
2088 2049 2068 1955 2210 2254 2202 2113 2149 2302 2254 2124 2015 1540 1367 1198 1886 1785 1814 1710 1757 1744 1610 1296 1502 1778 1368 1283 932 730 546 448 442 429 398 192 61 45 37 27 5 2 3 7 2 1 1 0 0 0 0 0 0 0 0 0 0 0 0 0 0 0 0 0 0 0 0 0 0 0 0 0 0 0 0 0 0 0 0 0 0 0 0 0 0
1138 1654 1780 1922 2179 2213 2113 2077 2252 2154 2166 2029 1954 1831 1365 1435 1570 1680 1788 1737 1818 1746 1528 1602 1564 1480 1300 1313 893 831 549 559 514 498 342 120 54 26 52 54 11 5 5 2 1 1 0 0 0 0 0 0 0 0 0 0 0 0 0 0 0 0 0 0 0 0 0 0 0 0 0 0 0 0 0 0 0 0 0 0 0 0 0 0 0
1996 1761 1940 1983 2185 2094 2021 1982 2198 2105 2022 1932 1848 1951 1780 1692 1673 1682 1818 1739 1850 1776 1640 1616 1624 1436 1405 1209 1038 960 617 587 545 437 274 126 99 60 78 69 6 3 10 0 0 0 0 0 0 0 0 0 0 0 0 0 0 0 0 0 0 0 0 0 0 0 0 0 0 0 0 0 0 0 0 0 0 0 0 0 0 0 0 0 0
1780 2014 2170 2026 2156 2108 1893 2047 2206 2129 2029 1873 1829 1931 2001 1886 1745 1773 1824 1772 1831 1802 1617 1700 1600 1452 1386 1211 1212 952 643 598 537 407 311 207 124 106 112 30 6 1 3 0 0 0 0 0 0 0 0 0 0 0 0 0 0 0 0 0 0 0 0 0 0 0 0 0 0 0 0 0 0 0 0 0 0 0 0 0 0 0 0 0 0
1187 2162 2220 2271 2216 2019 1895 1977 2201 2174 1990 1947 1826 1889 1987 1912 1846 1850 1940 1793 1816 1681 1656 1687 1616 1473 1315 1172 1062 752 691 576 490 418 387 261 146 108 5 0 2 3 1 0 0 0 1 0 0 0 0 0 0 0 0 0 0 0 0 0 0 0 0 0 0 0 0 0 0 0 0 0 0 0 0 0 0 0 0 0 0 0 0 0 0
1437 2386 2375 2265 2152 1863 1836 1796 2142 1971 1898 1968 1918 1846 1897 1925 1911 1849 1805 1864 1834 1661 1695 1689 1622 1533 1297 1081 967 726 636 521 508 510 481 302 124 14 0 0 0 0 0 0 0 0 0 0 0 0 0 0 0 0 0 0 0 0 0 0 0 0 0 0 0 0 0 0 0 0 0 0 0 0 0 0 0 0 0 0 0 0 0 0 0
1449 2373 2586 2590 2340 2100 1886 1890 1896 2074 1930 1869 1931 1916 1977 1968 1982 1883 1849 1876 1805 1745 1734 1664 1548 1548 1266 1030 800 685 638 614 606 550 483 309 41 0 0 3 0 0 0 0 1 0 0 0 0 0 0 0 0 0 0 0 0 0 0 0 0 0 0 0 0 0 0 0 0 0 0 0 0 0 0 0 0 0 0 0 0 0 0 0 0
1666 2311 2802 2583 2258 2128 1947 1849 1722 1758 1896 1985 2033 1956 2035 2064 1909 1737 1677 1803 1855 1798 1586 1570 1533 1243 1182 916 816 773 727 714 689 531 542 381 0 0 21 23 6 0 0 0 0 0 0 0 0 0 0 0 0 0 0 0 0 0 0 0 0 0 0 0 0 0 0 0 0 0 0 0 0 0 0 0 0 0 0 0 0 0 0 0 0
1288 2142 2797 2592 2434 2242 1976 1854 1822 1863 2074 2111 2075 1910 1922 1967 1901 1658 1642 1766 1827 1738 1627 1562 1415 1227 1146 1061 897 845 794 734 690 612 556 300 0 4 32 28 7 0 0 0 0 0 0 0 0 0 0 0 0 0 0 0 0 0 0 0 0 0 0 0 0 0 0 0 0 0 0 0 0 0 0 0 0 0 0 0 0 0 0 0 0
1186 2532 2671 2717 2593 2451 2041 1921 1966 1985 2044 2120 2164 2072 1848 1837 1875 1789 1716 1710 1787 1730 1640 1437 1294 1259 1112 977 937 850 732 672 672 696 578 287 21 77 50 89 26 1 199 0 0 0 0 0 0 0 0 0 0 0 0 0 113 122 102 0 0 0 0 0 0 0 0 0 0 0 0 0 0 0 0 0 0 0 0 0 0 0 0 0 0
1251 1784 2437 2352 2287 2304 2341 2194 2018 2092 2075 2051 2145 1974 1912 1818 1884 1730 1795 1824 1836 1629 1438 1360 1211 1125 980 921 863 842 786 732 748 659 486 242 204 124 96 107 37 40 239 0 0 0 0 0 0 0 0 0 0 0 97 104 137 140 91 0 0 0 0 0 0 0 0 0 0 0 0 0 0 0 0 0 0 0 0 0 0 0 0 0 0
2528 2763 2576 2520 2455 2256 2150 2192 2106 2102 1923 2001 2048 1944 2007 1945 1888 1706 1668 1889 1809 1522 1434 1308 1110 1069 970 888 862 833 798 781 747 622 408 275 216 140 130 98 77 274 270 0 0 0 0 0 0 0 0 229 200 191 184 155 160 134 60 0 0 0 0 0 0 0 0 0 0 0 0 0 0 0 0 0 0 0 0 0 0 0 0 0 0
2087 2391 2451 2616 2517 2358 2144 1984 2159 2192 2007 2084 1984 1771 1728 1896 1747 1645 1881 1770 1677 1496 1391 1255 1160 1006 917 844 822 852 830 764 726 595 418 314 210 148 159 136 157 290 293 254 0 0 0 0 0 0 257 250 260 247 219 198 181 150 74 0 0 0 0 0 0 0 0 0 0 0 0 0 0 0 0 0 0 0 0 0 0 0 0 0 0
1363 1810 2074 2379 2542 2511 2204 1884 1844 2240 2188 2125 1974 1725 1748 1811 1649 1604 1736 1650 1516 1389 1333 1265 1178 1111 982 892 898 952 923 844 729 594 421 328 204 189 227 224 238 323 330 278 0 0 0 0 0 156 252 280 313 272 196 171 150 80 0 12 4 0 0 0 0 0 0 0 0 0 0 0 0 0 0 0 0 0 0 0 0 0 0 0 0
1131 1285 1792 1920 2331 2406 2130 1875 1936 2183 2114 2007 1784 1785 1863 1711 1624 1470 1641 1555 1448 1357 1309 1226 1174 1109 1032 961 1026 1017 983 874 755 612 435 309 238 265 288 268 170 298 354 348 297 21 0 0 0 0 0 209 168 61 0 7 34 39 2 0 0 0 0 0 0 0 0 0 0 0 0 0 0 0 0 0 0 0 0 0 0 0 0 0 0
1315 2133 2438 2321 2352 2413 2168 1929 1847 2176 2047 1830 1693 1587 1736 1708 1741 1616 1550 1508 1405 1348 1273 1168 1120 1067 1041 1020 1094 1087 1039 894 766 643 481 340 292 302 327 272 270 108 318 339 324 296 298 221 0 0 0 75 0 0 0 0 0 0 0 0 0 0 0 0 0 0 0 0 0 0 0 0 0 0 0 0 0 0 0 0 0 0 0 0 0
837 1461 2031 2380 2418 2331 2166 1976 2024 2211 2023 1779 1600 1584 1693 1624 1589 1481 1452 1416 1417 1380 1267 1115 1174 1123 1031 1030 1116 1137 1037 871 750 663 541 392 358 379 382 389 328 344 378 346 343 241 0 0 23 57 53 0 0 0 0 0 0 0 0 0 0 0 0 0 0 0 0 0 0 0 0 0 0 0 0 0 0 0 0 0 0 0 0 0 0
739 1389 2113 2199 2270 2155 2041 2061 2217 2034 1850 1721 1674 1762 1521 1516 1450 1411 1440 1424 1434 1398 1292 1164 1140 1091 1077 1053 1096 1141 1027 913 837 728 648 484 449 388 413 362 303 432 478 393 342 297 267 243 103 0 83 0 0 0 0 0 0 0 0 0 0 0 0 0 0 0 0 0 0 0 0 0 0 0 0 0 0 0 0 0 0 0 0 0 0
529 1216 1541 1983 1801 1777 2102 2219 2255 1990 1794 1754 1604 1536 1473 1418 1358 1306 1351 1401 1450 1449 1295 1170 1157 1156 1133 1067 1093 1150 1045 999 969 898 780 587 432 389 360 271 328 464 441 350 268 225 215 64 0 56 53 0 0 0 0 0 0 0 0 0 0 0 0 0 0 0 0 0 0 0 0 0 0 0 0 0 0 0 0 0 0 0 0 0 0
497 1021 1876 1666 1662 1704 2065 2192 2003 1964 1932 1670 1598 1508 1395 1337 1302 1311 1360 1402 1399 1295 1223 1185 1193 1176 1144 1109 1129 1077 1040 1015 1011 954 838 646 472 392 316 315 332 317 270 245 241 250 210 178 103 121 56 0 0 0 0 0 0 0 0 0 0 0 0 0 0 0 0 0 0 0 0 0 0 0 0 0 0 0 0 0 0 0 0 0 0
1141 1251 1325 1403 1403 1612 2278 2067 1888 1734 1593 1565 1530 1441 1419 1318 1262 1303 1313 1294 1237 1140 1096 1181 1211 1185 1219 1151 1074 1022 970 948 920 785 629 472 366 353 344 390 362 322 326 325 310 226 190 41 0 0 94 70 20 0 0 0 0 0 0 0 0 0 0 0 0 0 0 0 0 0 0 0 0 0 0 0 0 0 0 0 0 0 0 0 0
718 1321 1282 1466 1851 2247 2349 2177 1874 1700 1506 1566 1456 1325 1315 1324 1287 1263 1268 1224 1192 1182 1106 1139 1219 1192 1180 1105 1059 1069 960 900 781 622 424 344 368 412 392 431 417 400 432 396 330 265 172 141 114 112 27 0 0 0 0 0 0 0 0 0 0 0 0 0 0 0 0 0 0 0 0 0 0 0 0 0 0 0 0 0 0 0 0 0 0
1178 1498 1516 1896 2478 2409 2354 1985 1843 1668 1624 1463 1377 1278 1214 1174 1186 1237 1190 1106 1077 1038 1069 1142 1194 1162 1156 1118 1070 1074 935 892 768 649 494 435 429 393 326 410 460 443 359 301 169 154 175 68 128 39 0 0 0 0 0 0 0 0 0 0 0 0 0 0 0 0 0 0 0 0 0 0 0 0 0 0 0 0 0 0 0 0 0 0 0
1495 1653 1825 1827 2510 2344 2042 1860 1718 1509 1494 1431 1341 1320 1226 1175 1101 1107 1074 982 1076 1147 1171 1167 1170 1151 1134 1126 1115 1091 942 913 842 764 603 457 436 416 419 463 403 162 204 227 181 110 98 175 118 57 23 0 0 0 0 0 0 0 0 0 0 0 0 0 0 0 0 0 0 0 0 0 0 0 0 0 0 0 0 0 0 0 0 0 0
1716 1554 1644 2572 2274 2110 1928 1685 1618 1585 1492 1310 1215 1230 1214 1204 1080 991 922 863 978 1099 1145 1179 1149 1133 1133 1118 1101 955 673 650 716 627 465 405 388 475 424 431 442 322 203 148 117 147 185 155 71 52 46 3 2 2 6 0 0 0 0 0 0 0 0 0 0 0 0 0 0 0 0 0 0 0 0 0 0 0 0 0 0 0 0 0 0
1852 1728 2007 2422 2155 2062 1879 1742 1644 1621 1532 1319 1267 1196 1135 1072 912 883 880 834 935 1097 1156 1134 1127 1087 1075 1044 942 589 434 337 208 376 374 418 439 469 441 438 420 387 224 200 137 84 129 172 125 69 44 0 14 30 22 0 0 0 0 0 0 0 0 0 0 0 0 0 0 0 0 0 0 0 0 0 0 0 0 0 0 0 0 0 0
1851 1865 2135 2149 2046 1953 1833 1698 1560 1391 1363 1286 1207 1149 1069 976 914 736 753 770 966 1138 1216 1177 1133 1114 1112 1056 773 760 552 461 476 490 527 517 522 564 509 479 426 379 340 294 259 235 86 142 120 108 10 0 10 24 30 18 3 0 0 0 0 0 0 0 0 0 0 0 0 0 0 0 0 0 0 0 0 0 0 0 0 0 0 0 0
1714 1876 2077 2040 2015 1876 1719 1592 1512 1386 1329 1248 1242 1116 1022 955 819 699 781 837 1000 1133 1154 1147 1172 1163 1080 879 809 778 604 609 583 521 580 621 535 519 510 495 426 378 386 308 178 126 115 147 94 24 0 0 0 8 14 1 0 0 0 0 0 0 0 0 0 0 0 0 0 0 0 0 0 0 0 0 0 0 0 0 0 0 0 0 0
1807 2001 1906 1860 1828 1759 1672 1521 1448 1442 1392 1222 1011 921 823 783 776 821 892 941 1045 1150 1159 1114 1093 1046 927 862 845 748 706 660 624 677 661 558 526 504 507 492 457 452 441 388 92 38 78 61 54 0 0 0 0 0 0 0 0 0 0 0 0 0 0 0 0 0 0 0 0 0 0 0 0 0 0 0 0 0 0 0 0 0 0 0 0
1835 1834 1884 1702 1653 1510 1438 1498 1399 1367 1247 1088 1035 938 917 853 829 817 865 956 1027 1012 1066 1065 1016 988 929 792 771 724 647 668 646 584 550 515 492 470 482 448 445 448 314 208 89 234 2 0 0 0 0 0 0 0 0 0 0 0 0 0 0 0 0 0 0 0 0 0 0 0 0 0 0 0 0 0 0 0 0 0 0 0 0 0 0
1740 1748 1782 1712 1561 1459 1378 1334 1270 1286 1226 1163 1294 1183 943 840 897 938 846 926 943 952 944 963 997 968 902 782 693 660 694 651 587 556 529 492 489 496 487 450 412 391 338 270 200 42 8 0 0 0 0 0 0 0 0 0 0 0 2 2 0 0 0 0 0 0 0 0 0 0 0 0 0 0 0 0 0 0 0 0 0 0 0 0 0
1669 1654 1686 1778 1513 1476 1297 1399 1252 1179 1093 1074 1092 1121 1096 917 790 819 852 878 866 870 960 968 949 918 864 805 721 731 714 633 607 535 468 442 498 496 430 369 353 337 258 72 34 26 11 2 0 0 0 0 0 0 0 0 1 11 17 2 0 0 0 0 0 0 0 0 0 0 0 0 0 0 0 0 0 0 0 0 0 0 0 0 0
1660 1643 1518 1640 1501 1347 1450 1389 1414 1299 1202 1143 1057 1010 1039 963 872 796 731 693 722 781 831 816 778 747 693 714 770 814 734 645 574 467 356 316 348 372 300 280 230 213 118 83 71 15 0 0 0 0 0 0 3 6 3 9 6 4 4 2 0 0 0 0 0 0 0 0 0 0 0 0 0 0 0 0 0 0 0 0 0 0 0 0 0
1590 1493 1644 1712 1598 1478 1332 1274 1242 1213 1199 1183 1166 1085 992 910 899 844 714 667 686 744 791 802 790 850 854 820 812 765 728 675 494 427 289 250 229 255 232 236 241 216 81 62 38 34 2 0 0 0 0 0 1 0 3 7 9 6 3 0 0 0 0 0 0 0 0 0 0 0 0 0 0 0 0 0 0 0 0 0 0 0 0 0 0
1518 1620 1613 1477 1486 1687 1628 1311 1307 1234 1163 996 986 1000 930 878 870 786 637 659 747 778 808 842 843 841 935 922 881 845 802 666 543 397 328 279 275 224 223 253 169 6 2 0 0 0 0 0 0 8 2 0 0 12 23 6 2 0 0 0 0 0 0 0 0 0 0 0 0 0 0 0 0 0 0 0 0 0 0 0 0 0 0 0 0
1471 1687 1387 1604 1578 1614 1474 1434 1265 1092 1009 958 1011 988 856 683 708 647 659 693 776 817 818 874 879 919 940 979 881 793 768 750 681 563 434 357 278 24 96 183 196 135 116 88 0 6 0 0 0 0 2 7 12 25 28 10 1 0 0 0 0 0 0 0 0 0 0 0 0 0 0 0 0 0 0 0 0 0 0 0 0 0 0 0 0
1592 1544 1272 1225 1314 1461 1574 1367 1249 1086 1011 946 949 940 830 844 626 608 626 685 790 814 851 847 890 936 1013 1017 943 750 652 556 520 422 403 447 366 193 0 154 167 154 130 0 0 0 0 1 0 0 0 19 35 38 33 10 1 0 0 0 0 0 0 0 0 0 0 0 0 0 0 0 0 0 0 0 0 0 0 0 0 0 0 0 0
Wind_Speed
43 44 42 39 42 46 41 39 39 41 38 41 41 34 33 35 35 36 32 34 34 33 31 30 31 31 32 32 34 34 37 35 35 31 30 28 31 30 31 27 26 33 35 32 28 27 24 22 24 23 19 22 18 18 16 17 16 15 16 12 9 12 9 13 18 19 nan nan nan nan nan nan nan nan nan nan nan nan nan nan nan nan nan nan nan
47 47 44 43 44 47 44 40 39 40 39 42 40 35 32 34 36 33 33 32 32 32 30 28 29 30 32 33 33 35 34 33 32 30 29 29 29 29 30 28 27 30 30 30 30 29 27 28 27 24 18 21 19 17 17 16 14 9 12 11 9 12 11 13 18 nan nan nan nan nan nan nan nan nan nan nan nan nan nan nan nan nan nan nan nan
46 47 48 46 47 48 45 44 40 41 40 41 39 34 33 32 33 33 34 32 31 31 30 28 29 31 32 33 33 33 31 31 30 30 30 29 27 28 29 28 28 29 29 27 29 29 29 28 26 23 nan nan 15 15 16 13 12 10 11 14 nan 11 13 12 15 14 nan nan nan nan nan nan nan nan nan nan nan nan nan nan nan nan nan nan nan
50 50 49 51 49 45 44 44 44 41 41 40 36 33 33 31 32 35 35 32 29 30 30 31 31 31 32 32 31 31 32 34 32 31 30 30 30 28 28 28 29 30 27 27 29 29 28 27 24 22 19 nan nan 11 15 nan 13 10 11 15 nan nan nan 16 16 17 17 24 nan nan nan nan nan nan nan nan nan nan nan nan nan nan nan nan nan
53 50 48 51 50 42 43 47 46 43 40 38 35 32 32 32 33 34 33 31 31 31 31 34 32 31 32 32 35 34 32 31 29 29 28 28 29 28 29 29 nan 28 26 29 nan nan nan nan nan nan nan nan nan nan nan nan 12 nan nan 15 nan 14 nan nan nan nan 22 nan nan nan 24 23 25 nan nan nan nan nan nan nan nan nan nan nan nan
54 49 44 50 47 42 44 47 47 43 39 35 35 33 33 33 33 33 32 31 32 32 33 33 32 31 32 34 33 31 29 27 27 29 29 28 29 29 nan nan nan nan nan nan nan nan nan nan nan nan nan nan nan nan nan 13 nan nan nan nan nan nan nan nan nan nan nan nan nan nan nan 25 nan nan nan nan nan nan nan nan nan nan nan nan nan
54 48 47 52 47 42 44 46 45 42 38 35 34 35 32 31 33 33 32 31 32 34 34 34 32 30 31 32 31 29 28 26 27 28 29 29 30 30 30 nan nan nan nan nan nan nan nan nan nan nan nan nan nan nan nan nan nan nan nan nan nan nan nan nan nan nan nan nan nan nan nan nan nan nan nan nan nan nan nan nan nan nan nan nan nan
56 50 47 51 46 41 43 44 42 39 35 33 35 35 30 31 32 32 32 32 32 35 34 32 30 29 29 29 29 28 28 28 29 29 29 31 32 nan nan nan nan nan nan nan nan nan nan nan nan nan nan nan nan nan nan nan nan nan nan nan nan nan nan nan nan nan nan nan nan nan nan nan nan nan nan nan nan nan nan nan nan nan nan nan nan
56 48 47 48 41 39 41 40 39 37 32 28 33 34 32 30 32 32 32 32 33 35 31 30 27 27 28 28 28 27 28 28 29 30 32 31 32 nan nan nan nan nan nan nan nan nan nan nan nan nan nan nan nan nan nan nan nan nan nan nan nan nan nan nan nan nan nan nan nan nan nan nan nan nan nan nan nan nan nan nan nan nan nan nan nan
49 48 47 43 36 37 38 38 38 33 28 28 31 34 32 29 29 30 32 32 32 32 27 27 25 26 27 27 28 29 29 30 30 31 31 30 nan nan nan 28 nan nan nan nan nan nan nan nan nan nan nan nan nan nan nan nan nan nan nan nan nan nan nan nan nan nan nan nan nan nan nan nan nan nan nan nan nan nan nan nan nan nan nan nan nan
49 46 44 39 33 35 37 36 34 31 29 30 32 34 32 28 29 29 30 30 29 26 23 24 23 25 26 26 28 31 31 31 32 nan nan nan nan nan 28 nan nan nan nan nan nan nan nan nan nan nan nan nan nan nan nan nan nan nan nan nan nan nan nan nan nan nan nan nan nan nan nan nan nan nan nan nan nan nan nan nan nan nan nan nan nan
48 46 43 39 35 32 35 35 32 30 29 30 31 35 32 27 29 29 29 28 26 23 20 22 22 24 25 26 29 31 31 30 30 31 nan nan nan nan nan nan nan nan nan nan nan nan nan nan nan nan nan nan nan nan nan nan nan nan nan nan nan nan nan nan nan nan nan nan nan nan nan nan nan nan nan nan nan nan nan nan nan nan nan nan nan
46 46 43 39 35 32 32 33 31 28 28 29 32 33 31 28 29 29 28 26 24 21 19 21 22 24 26 27 28 30 31 30 29 29 28 28 nan nan nan nan nan nan nan nan nan nan nan nan nan nan nan nan nan nan nan nan nan nan nan nan nan nan nan nan nan nan nan nan nan nan nan nan nan nan nan nan nan nan nan nan nan nan nan nan nan
46 45 45 40 34 32 31 32 29 27 28 30 32 33 31 28 29 27 25 23 21 20 20 22 22 24 27 26 27 29 30 29 28 28 28 28 nan nan nan nan nan nan nan nan nan nan nan nan nan nan nan nan nan nan nan nan nan nan nan nan nan nan nan nan nan nan nan nan nan nan nan nan nan nan nan nan nan nan nan nan nan nan nan nan nan
48 45 47 40 33 31 31 31 29 27 29 30 32 33 31 27 27 25 24 22 20 21 21 22 22 25 28 26 29 29 30 30 28 27 28 28 nan nan nan nan nan nan nan nan nan nan nan nan nan nan nan nan nan nan nan nan nan nan nan nan nan nan nan nan nan nan nan nan nan nan nan nan nan nan nan nan nan nan nan nan nan nan nan nan nan
46 44 43 38 31 31 31 31 30 28 29 30 31 33 30 26 24 23 23 22 21 21 21 22 24 26 27 28 30 30 30 30 28 27 28 28 nan nan nan nan nan nan nan nan nan nan nan nan nan nan nan nan nan nan nan nan nan nan nan nan nan nan nan nan nan nan nan nan nan nan nan nan nan nan nan nan nan nan nan nan nan nan nan nan nan
46 40 39 35 31 31 30 30 32 29 28 28 29 30 28 26 24 23 23 23 22 21 22 23 25 26 27 29 29 30 30 31 29 29 29 29 nan nan nan nan nan nan nan nan nan nan nan nan nan nan nan nan nan nan nan nan nan nan nan nan nan nan nan nan nan nan nan nan nan nan nan nan nan nan nan nan nan nan nan nan nan nan nan nan nan
43 38 37 33 30 31 30 30 31 28 27 29 29 27 26 24 23 23 24 25 23 22 22 24 25 26 28 28 29 31 30 30 30 30 29 28 28 25 25 nan nan nan nan nan nan nan nan nan nan nan nan nan nan nan nan nan nan nan nan nan nan nan nan nan nan nan nan nan nan nan nan nan nan nan nan nan nan nan nan nan nan nan nan nan nan
40 37 33 30 27 29 31 30 30 28 28 30 29 26 24 24 23 22 23 25 26 24 22 23 24 23 25 27 30 30 30 30 30 30 30 29 28 26 nan nan nan nan nan nan nan nan nan nan nan nan nan nan nan nan nan nan nan nan nan nan nan nan nan nan nan nan nan nan nan nan nan nan nan nan nan nan nan nan nan nan nan nan nan nan nan
43 37 34 29 25 27 29 30 30 28 30 30 28 26 23 23 24 21 22 25 26 25 23 24 23 24 26 27 28 29 30 31 31 32 30 30 28 nan nan nan nan nan nan nan nan nan nan nan nan nan nan nan nan nan nan nan nan nan nan nan nan nan nan nan nan nan nan nan nan nan nan nan nan nan nan nan nan nan nan nan nan nan nan nan nan
43 38 34 29 26 27 29 30 28 30 32 30 28 25 23 22 22 21 21 25 27 25 25 24 23 24 27 28 29 29 31 32 33 34 31 30 nan nan nan nan nan nan nan nan nan nan nan nan nan nan nan nan nan nan nan nan nan nan nan nan nan nan nan nan nan nan nan nan nan nan nan nan nan nan nan nan nan nan nan nan nan nan nan nan nan
45 41 36 31 27 27 30 31 30 31 31 30 27 24 23 20 19 19 19 23 27 25 24 24 23 25 27 29 30 31 31 31 33 34 32 32 nan nan nan nan nan nan nan nan nan nan nan nan nan nan nan nan nan nan nan nan nan nan nan nan nan nan nan nan nan nan nan nan nan nan nan nan nan nan nan nan nan nan nan nan nan nan nan nan nan
46 40 37 34 30 28 30 32 30 28 28 29 26 21 21 21 20 17 18 23 25 25 25 26 26 26 28 30 31 32 32 34 33 32 32 33 nan nan nan nan nan nan nan nan nan nan nan nan nan nan nan nan nan nan nan nan nan nan nan nan nan nan nan nan nan nan nan nan nan nan nan nan nan nan nan nan nan nan nan nan nan nan nan nan nan
45 43 38 38 36 32 31 32 29 27 27 26 23 20 21 22 20 19 18 22 25 25 25 27 28 28 30 30 31 32 34 35 33 32 33 32 nan nan nan nan nan nan 23 nan nan nan nan nan nan nan nan nan nan nan nan nan 37 37 37 nan nan nan nan nan nan nan nan nan nan nan nan nan nan nan nan nan nan nan nan nan nan nan nan nan nan
46 45 42 41 39 33 30 30 28 27 26 23 21 20 22 24 21 19 20 22 25 25 26 27 29 31 31 31 32 33 34 34 34 33 33 32 31 28 nan 26 nan nan 24 nan nan nan nan nan nan nan nan nan nan nan nan 38 38 38 nan nan nan nan nan nan nan nan nan nan nan nan nan nan nan nan nan nan nan nan nan nan nan nan nan nan nan
50 49 44 41 37 32 28 29 27 27 25 22 22 23 25 25 23 22 23 24 26 27 28 28 29 31 31 33 33 33 33 33 34 34 33 31 30 27 26 nan nan 25 26 nan nan nan nan nan nan nan nan 37 38 37 39 39 40 40 nan nan nan nan nan nan nan nan nan nan nan nan nan nan nan nan nan nan nan nan nan nan nan nan nan nan nan
50 47 41 39 35 29 27 27 29 29 26 25 25 25 25 27 26 24 26 26 28 30 30 29 30 31 32 33 34 34 33 34 34 33 31 30 29 26 25 26 25 26 28 29 nan nan nan nan nan nan 37 39 39 39 40 41 41 40 nan nan nan nan nan nan nan nan nan nan nan nan nan nan nan nan nan nan nan nan nan nan nan nan nan nan nan
44 45 42 36 32 28 27 28 30 29 28 29 27 25 25 26 26 27 28 27 28 32 32 31 31 31 32 33 33 33 33 34 33 32 31 29 28 25 23 25 25 28 29 29 nan nan nan nan nan 37 38 40 41 41 41 39 38 nan nan nan nan nan nan nan nan nan nan nan nan nan nan nan nan nan nan nan nan nan nan nan nan nan nan nan nan
41 42 39 34 30 28 29 30 31 30 29 28 26 25 26 27 29 29 28 28 31 34 34 32 30 31 33 34 34 33 32 34 33 32 30 29 27 23 23 25 25 27 27 28 29 nan nan nan nan nan nan 41 41 nan nan nan nan nan nan nan nan nan nan nan nan nan nan nan nan nan nan nan nan nan nan nan nan nan nan nan nan nan nan nan nan
42 41 37 33 31 30 31 32 31 29 27 26 26 24 26 29 32 31 29 30 33 35 34 32 29 30 32 34 34 33 33 33 33 32 30 27 25 23 24 26 26 27 27 28 29 31 32 34 nan nan nan nan nan nan nan nan nan nan nan nan nan nan nan nan nan nan nan nan nan nan nan nan nan nan nan nan nan nan nan nan nan nan nan nan nan
37 37 35 35 34 33 32 30 27 27 26 26 26 26 28 31 31 30 30 32 34 34 34 31 29 31 33 33 33 33 33 32 32 31 29 27 25 25 26 27 28 27 28 30 32 33 nan nan nan nan nan nan nan nan nan nan nan nan nan nan nan nan nan nan nan nan nan nan nan nan nan nan nan nan nan nan nan nan nan nan nan nan nan nan nan
35 36 37 36 36 33 30 26 26 26 26 27 27 29 31 30 30 30 32 34 33 33 33 32 30 31 33 33 32 33 33 32 32 30 28 27 26 27 28 28 29 31 31 32 33 33 35 37 38 nan nan nan nan nan nan nan nan nan nan nan nan nan nan nan nan nan nan nan nan nan nan nan nan nan nan nan nan nan nan nan nan nan nan nan nan
32 31 34 36 34 29 28 29 31 29 26 26 29 31 31 30 31 33 34 33 32 32 33 32 30 30 30 31 32 32 31 31 29 28 27 28 27 28 31 31 33 33 32 32 34 34 35 nan nan nan nan nan nan nan nan nan nan nan nan nan nan nan nan nan nan nan nan nan nan nan nan nan nan nan nan nan nan nan nan nan nan nan nan nan nan
30 30 36 33 29 29 31 32 31 30 28 28 31 33 33 32 33 35 33 32 31 30 31 31 29 29 30 30 31 30 30 29 28 27 27 28 29 30 32 34 34 34 33 33 34 33 33 34 35 33 nan nan nan nan nan nan nan nan nan nan nan nan nan nan nan nan nan nan nan nan nan nan nan nan nan nan nan nan nan nan nan nan nan nan nan
29 31 32 28 26 26 33 32 30 28 29 31 32 32 32 31 32 33 32 31 29 29 29 29 28 28 29 29 29 29 30 29 28 29 30 30 32 34 34 34 34 34 34 33 33 32 31 nan nan nan nan nan nan nan nan nan nan nan nan nan nan nan nan nan nan nan nan nan nan nan nan nan nan nan nan nan nan nan nan nan nan nan nan nan nan
24 28 32 29 26 27 29 30 30 29 29 32 33 34 34 32 33 33 31 30 29 29 28 29 29 29 29 30 30 30 30 30 30 32 33 33 34 35 35 34 34 33 32 33 32 32 32 31 32 32 nan nan nan nan nan nan nan nan nan nan nan nan nan nan nan nan nan nan nan nan nan nan nan nan nan nan nan nan nan nan nan nan nan nan nan
28 33 32 32 29 27 30 31 29 28 30 32 33 34 34 34 33 31 31 29 29 29 30 30 29 30 29 29 30 32 31 32 33 34 33 33 34 34 33 33 34 32 32 33 32 32 32 nan 33 nan nan nan nan nan nan nan nan nan nan nan nan nan nan nan nan nan nan nan nan nan nan nan nan nan nan nan nan nan nan nan nan nan nan nan nan
37 38 34 25 24 27 28 29 28 27 31 34 34 35 36 35 34 32 32 30 30 31 32 31 30 30 31 32 33 33 34 33 33 32 31 32 32 31 32 32 33 33 32 31 32 33 nan 33 33 nan nan nan nan nan nan nan nan nan nan nan nan nan nan nan nan nan nan nan nan nan nan nan nan nan nan nan nan nan nan nan nan nan nan nan nan
37 36 30 30 28 28 28 27 28 28 32 37 36 37 36 35 35 35 34 33 32 31 33 32 30 31 31 32 33 32 32 32 33 31 31 32 31 31 32 31 31 32 33 32 33 33 34 34 nan nan nan nan nan nan nan nan nan nan nan nan nan nan nan nan nan nan nan nan nan nan nan nan nan nan nan nan nan nan nan nan nan nan nan nan nan
35 32 34 34 33 30 28 28 28 32 35 37 37 35 35 35 35 36 35 34 33 32 32 32 33 33 31 30 30 32 31 32 32 31 31 31 31 32 32 31 31 31 32 33 34 nan 37 37 40 nan nan nan nan nan nan nan nan nan nan nan nan nan nan nan nan nan nan nan nan nan nan nan nan nan nan nan nan nan nan nan nan nan nan nan nan
29 33 38 33 31 29 29 31 31 33 34 36 36 36 35 35 36 35 34 35 34 33 33 32 31 30 28 30 30 29 30 30 30 31 31 31 31 32 33 33 34 34 35 34 36 36 nan 40 41 39 nan nan nan nan nan nan nan nan nan nan nan nan nan nan nan nan nan nan nan nan nan nan nan nan nan nan nan nan nan nan nan nan nan nan nan
27 35 32 32 33 32 32 33 34 33 34 35 35 35 34 34 34 32 33 34 33 32 31 30 28 27 27 27 27 28 29 30 32 34 34 34 35 36 36 38 37 39 39 40 40 42 44 43 nan nan nan nan nan nan nan nan nan nan nan nan nan nan nan nan nan nan nan nan nan nan nan nan nan nan nan nan nan nan nan nan nan nan nan nan nan
32 30 31 31 31 31 31 32 32 32 32 34 35 35 34 33 32 31 31 31 32 30 29 28 27 26 25 25 27 30 30 31 34 36 38 38 38 39 40 41 40 41 43 45 nan nan nan nan nan nan nan nan nan nan nan nan nan nan nan nan nan nan nan nan nan nan nan nan nan nan nan nan nan nan nan nan nan nan nan nan nan nan nan nan nan
30 32 34 33 32 30 29 30 31 31 31 33 33 33 32 31 30 30 28 28 30 27 27 26 25 27 28 28 30 32 33 34 37 38 39 40 41 41 42 41 42 44 45 45 nan 42 nan nan nan nan nan nan nan nan nan nan nan nan nan nan nan nan nan nan nan nan nan nan nan nan nan nan nan nan nan nan nan nan nan nan nan nan nan nan nan
32 31 35 31 32 31 30 31 31 31 31 32 33 32 33 29 29 30 28 27 26 26 26 28 28 29 30 31 32 32 34 35 37 40 41 41 42 42 42 42 45 44 43 43 42 nan nan nan nan nan nan nan nan nan nan nan nan nan nan nan nan nan nan nan nan nan nan nan nan nan nan nan nan nan nan nan nan nan nan nan nan nan nan nan nan
34 33 31 30 33 34 32 33 31 31 31 30 30 31 32 30 31 30 29 27 27 27 27 27 28 31 33 35 36 36 38 39 41 41 43 43 44 42 42 44 44 43 42 nan nan nan nan nan nan nan nan nan nan nan nan nan nan nan nan nan nan nan nan nan nan nan nan nan nan nan nan nan nan nan nan nan nan nan nan nan nan nan nan nan nan
34 33 29 33 33 31 33 33 31 29 29 28 28 29 30 31 31 29 28 26 26 27 26 27 31 33 36 37 39 38 39 40 42 42 42 42 42 42 42 43 42 41 40 nan nan nan nan nan nan nan nan nan nan nan nan nan nan nan nan nan nan nan nan nan nan nan nan nan nan nan nan nan nan nan nan nan nan nan nan nan nan nan nan nan nan
34 30 27 34 33 32 32 31 29 27 26 27 28 31 31 32 30 28 28 29 29 29 31 31 34 36 37 38 38 43 43 41 41 42 42 42 41 41 41 40 39 39 nan nan nan nan nan nan nan nan nan nan nan nan nan nan nan nan nan nan nan nan nan nan nan nan nan nan nan nan nan nan nan nan nan nan nan nan nan nan nan nan nan nan nan
30 31 35 35 33 34 33 30 29 26 27 28 29 30 29 30 28 28 28 31 30 32 34 36 36 37 38 39 39 41 41 42 42 40 39 39 40 39 39 38 37 nan nan nan nan nan nan nan nan nan nan nan nan nan nan nan nan nan nan nan nan nan nan nan nan nan nan nan nan nan nan nan nan nan nan nan nan nan nan nan nan nan nan nan nan
30 37 40 41 39 36 36 36 35 32 29 29 32 33 30 29 29 29 30 33 33 34 36 37 37 37 39 40 41 41 41 41 40 39 38 35 34 nan nan 38 37 37 41 nan nan nan nan nan nan nan nan nan nan nan nan nan nan nan nan nan nan nan nan nan nan nan nan nan nan nan nan nan nan nan nan nan nan nan nan nan nan nan nan nan nan
33 39 41 40 34 30 34 36 39 40 36 32 31 32 34 33 31 32 36 38 37 36 36 35 37 36 39 41 42 41 41 40 38 37 36 37 36 35 nan 36 36 38 39 nan nan nan nan nan nan nan nan nan nan nan nan nan nan nan nan nan nan nan nan nan nan nan nan nan nan nan nan nan nan nan nan nan nan nan nan nan nan nan nan nan nan
Wind_Direction
270 273 274 274 272 272 275 275 274 276 278 281 284 288 289 291 290 292 293 291 289 289 291 292 292 293 293 296 297 296 295 296 294 294 293 292 292 294 293 295 294 297 303 306 305 310 313 308 296 299 296 294 298 295 290 290 297 296 293 281 270 281 283 276 288 291 nan nan nan nan nan nan nan nan nan nan nan nan nan nan nan nan nan nan nan
268 271 273 272 272 273 275 277 279 280 279 283 286 290 288 289 289 291 290 287 286 287 288 288 291 292 293 295 295 294 296 294 293 291 290 289 291 294 293 295 293 290 288 293 301 301 300 295 296 295 298 298 301 305 307 311 307 297 281 278 277 288 285 282 292 nan nan nan nan nan nan nan nan nan nan nan nan nan nan nan nan nan nan nan nan
273 274 276 274 271 273 273 277 282 283 279 281 285 290 288 290 289 286 283 280 282 286 287 289 288 289 291 292 293 292 291 288 287 289 287 286 288 291 294 295 290 282 283 288 294 294 293 292 294 296 nan nan 305 313 312 309 279 285 286 287 nan 276 284 281 292 286 nan nan nan nan nan nan nan nan nan nan nan nan nan nan nan nan nan nan nan
275 274 275 276 273 274 275 276 281 283 281 280 287 291 288 285 285 281 281 281 283 285 287 286 286 287 289 288 287 285 284 281 284 286 287 290 290 288 286 285 284 286 291 299 293 293 296 296 296 297 296 nan nan 295 295 nan 288 277 276 282 nan nan nan 293 286 291 296 311 nan nan nan nan nan nan nan nan nan nan nan nan nan nan nan nan nan
272 273 273 274 274 276 278 275 277 282 281 285 288 287 283 282 279 279 280 281 282 283 284 283 287 287 286 280 276 278 282 285 288 289 293 294 295 297 293 290 nan 288 291 291 nan nan nan nan nan nan nan nan nan nan nan nan 291 nan nan 288 nan 298 nan nan nan nan 297 nan nan nan 309 315 312 nan nan nan nan nan nan nan nan nan nan nan nan
275 277 277 277 277 276 276 275 277 281 284 284 286 281 277 275 276 276 275 277 281 283 285 285 288 287 285 285 286 288 291 290 294 297 299 300 300 296 nan nan nan nan nan nan nan nan nan nan nan nan nan nan nan nan nan 286 nan nan nan nan nan nan nan nan nan nan nan nan nan nan nan 310 nan nan nan nan nan nan nan nan nan nan nan nan nan
272 272 275 274 277 280 279 279 280 283 281 282 281 278 277 277 274 275 275 276 281 284 287 285 288 286 285 287 289 291 290 290 290 293 296 298 295 296 292 nan nan nan nan nan nan nan nan nan nan nan nan nan nan nan nan nan nan nan nan nan nan nan nan nan nan nan nan nan nan nan nan nan nan nan nan nan nan nan nan nan nan nan nan nan nan
270 274 279 278 280 285 287 282 279 279 279 281 276 276 275 272 273 274 274 277 279 281 285 284 286 285 288 289 287 288 287 289 291 291 294 295 297 nan nan nan nan nan nan nan nan nan nan nan nan nan nan nan nan nan nan nan nan nan nan nan nan nan nan nan nan nan nan nan nan nan nan nan nan nan nan nan nan nan nan nan nan nan nan nan nan
275 274 279 280 286 287 284 281 279 278 274 281 275 274 269 264 268 272 275 278 279 284 286 287 283 286 290 289 287 286 289 289 287 289 292 294 295 nan nan nan nan nan nan nan nan nan nan nan nan nan nan nan nan nan nan nan nan nan nan nan nan nan nan nan nan nan nan nan nan nan nan nan nan nan nan nan nan nan nan nan nan nan nan nan nan
273 277 277 279 284 283 281 279 275 278 275 277 274 269 267 262 267 273 276 277 280 287 287 290 286 286 288 288 290 288 288 289 288 291 290 290 nan nan nan 288 nan nan nan nan nan nan nan nan nan nan nan nan nan nan nan nan nan nan nan nan nan nan nan nan nan nan nan nan nan nan nan nan nan nan nan nan nan nan nan nan nan nan nan nan nan
267 272 275 276 275 272 274 276 277 277 273 276 274 271 273 269 272 276 277 277 282 288 289 291 290 289 286 288 290 292 294 292 292 nan nan nan nan nan 287 nan nan nan nan nan nan nan nan nan nan nan nan nan nan nan nan nan nan nan nan nan nan nan nan nan nan nan nan nan nan nan nan nan nan nan nan nan nan nan nan nan nan nan nan nan nan
265 268 270 272 270 269 270 273 275 281 279 278 276 272 276 275 276 282 283 284 284 287 289 291 291 290 287 291 295 297 297 295 296 297 nan nan nan nan nan nan nan nan nan nan nan nan nan nan nan nan nan nan nan nan nan nan nan nan nan nan nan nan nan nan nan nan nan nan nan nan nan nan nan nan nan nan nan nan nan nan nan nan nan nan nan
262 263 268 267 264 266 270 272 275 278 283 282 279 273 278 276 280 285 288 288 285 286 290 291 292 291 290 294 298 299 296 298 298 298 299 294 nan nan nan nan nan nan nan nan nan nan nan nan nan nan nan nan nan nan nan nan nan nan nan nan nan nan nan nan nan nan nan nan nan nan nan nan nan nan nan nan nan nan nan nan nan nan nan nan nan
260 258 260 263 261 260 266 270 275 275 276 275 275 273 273 272 280 289 291 288 285 287 288 290 292 292 293 299 300 299 297 298 296 298 298 291 nan nan nan nan nan nan nan nan nan nan nan nan nan nan nan nan nan nan nan nan nan nan nan nan nan nan nan nan nan nan nan nan nan nan nan nan nan nan nan nan nan nan nan nan nan nan nan nan nan
262 262 261 263 262 259 260 265 266 267 274 273 272 271 273 275 283 291 290 291 288 288 288 295 294 293 299 303 301 299 297 295 294 295 295 292 nan nan nan nan nan nan nan nan nan nan nan nan nan nan nan nan nan nan nan nan nan nan nan nan nan nan nan nan nan nan nan nan nan nan nan nan nan nan nan nan nan nan nan nan nan nan nan nan nan
262 261 264 266 263 258 257 259 261 265 271 270 274 272 276 278 282 289 290 290 286 287 289 293 293 294 303 301 302 298 295 293 291 292 290 288 nan nan nan nan nan nan nan nan nan nan nan nan nan nan nan nan nan nan nan nan nan nan nan nan nan nan nan nan nan nan nan nan nan nan nan nan nan nan nan nan nan nan nan nan nan nan nan nan nan
260 262 266 269 263 260 258 259 259 264 269 273 275 275 280 278 280 288 288 286 288 289 290 290 292 297 301 301 300 296 297 295 293 292 290 290 nan nan nan nan nan nan nan nan nan nan nan nan nan nan nan nan nan nan nan nan nan nan nan nan nan nan nan nan nan nan nan nan nan nan nan nan nan nan nan nan nan nan nan nan nan nan nan nan nan
263 267 270 274 272 267 259 256 262 266 273 273 274 271 271 272 281 288 287 292 291 290 292 291 296 299 301 303 299 298 296 293 292 293 290 290 289 286 279 nan nan nan nan nan nan nan nan nan nan nan nan nan nan nan nan nan nan nan nan nan nan nan nan nan nan nan nan nan nan nan nan nan nan nan nan nan nan nan nan nan nan nan nan nan nan
267 271 273 275 270 266 264 264 269 269 269 268 271 271 269 270 276 282 290 293 294 292 292 291 298 296 299 301 300 298 294 290 291 290 289 292 293 286 nan nan nan nan nan nan nan nan nan nan nan nan nan nan nan nan nan nan nan nan nan nan nan nan nan nan nan nan nan nan nan nan nan nan nan nan nan nan nan nan nan nan nan nan nan nan nan
268 271 276 284 284 277 273 273 273 273 271 268 272 268 272 274 278 284 286 290 294 298 294 298 299 296 299 299 298 297 295 292 291 290 292 295 298 nan nan nan nan nan nan nan nan nan nan nan nan nan nan nan nan nan nan nan nan nan nan nan nan nan nan nan nan nan nan nan nan nan nan nan nan nan nan nan nan nan nan nan nan nan nan nan nan
272 275 275 283 284 278 274 270 271 265 263 265 266 271 270 275 286 293 295 298 298 299 296 297 294 295 299 301 299 296 294 291 292 292 294 296 nan nan nan nan nan nan nan nan nan nan nan nan nan nan nan nan nan nan nan nan nan nan nan nan nan nan nan nan nan nan nan nan nan nan nan nan nan nan nan nan nan nan nan nan nan nan nan nan nan
269 271 271 274 276 275 267 264 262 262 266 270 270 271 278 285 288 295 293 296 298 299 296 295 291 291 298 298 296 292 290 288 289 293 293 292 nan nan nan nan nan nan nan nan nan nan nan nan nan nan nan nan nan nan nan nan nan nan nan nan nan nan nan nan nan nan nan nan nan nan nan nan nan nan nan nan nan nan nan nan nan nan nan nan nan
270 270 268 268 269 268 267 267 267 266 266 271 270 278 284 286 285 285 291 294 295 297 293 290 289 291 293 292 293 293 291 288 288 292 295 296 nan nan nan nan nan nan nan nan nan nan nan nan nan nan nan nan nan nan nan nan nan nan nan nan nan nan nan nan nan nan nan nan nan nan nan nan nan nan nan nan nan nan nan nan nan nan nan nan nan
264 264 264 262 258 258 259 263 265 262 263 269 273 276 278 278 280 282 292 292 292 294 292 290 289 289 289 292 292 290 291 290 290 289 292 295 nan nan nan nan nan nan 281 nan nan nan nan nan nan nan nan nan nan nan nan nan 294 294 294 nan nan nan nan nan nan nan nan nan nan nan nan nan nan nan nan nan nan nan nan nan nan nan nan nan nan
259 261 262 260 259 260 262 265 266 264 261 264 270 276 275 275 273 279 283 286 287 290 294 292 291 289 290 291 290 290 290 290 290 291 293 295 295 294 nan 291 nan nan 285 nan nan nan nan nan nan nan nan nan nan nan nan 293 293 293 nan nan nan nan nan nan nan nan nan nan nan nan nan nan nan nan nan nan nan nan nan nan nan nan nan nan nan
257 256 259 261 258 258 261 265 262 261 261 263 264 268 268 269 271 269 275 281 286 289 292 291 290 291 290 289 288 290 292 290 291 291 293 294 295 294 291 nan nan 292 287 nan nan nan nan nan nan nan nan 293 294 293 293 293 293 292 nan nan nan nan nan nan nan nan nan nan nan nan nan nan nan nan nan nan nan nan nan nan nan nan nan nan nan
258 260 260 262 263 265 266 269 264 262 260 257 260 263 266 265 270 269 272 280 286 289 288 288 290 288 287 287 288 290 291 290 290 290 291 293 295 294 292 291 291 289 288 289 nan nan nan nan nan nan 294 294 293 292 291 291 291 293 nan nan nan nan nan nan nan nan nan nan nan nan nan nan nan nan nan nan nan nan nan nan nan nan nan nan nan
261 265 269 269 267 267 266 264 262 261 259 257 257 259 264 266 274 270 274 281 283 285 286 286 286 285 283 286 287 287 288 289 288 289 290 293 295 295 292 289 289 287 289 293 nan nan nan nan nan 293 291 289 289 292 291 292 295 nan nan nan nan nan nan nan nan nan nan nan nan nan nan nan nan nan nan nan nan nan nan nan nan nan nan nan nan
261 262 267 272 269 267 266 263 259 260 262 264 263 259 261 264 269 272 276 283 283 283 283 282 282 284 284 285 283 282 284 286 287 287 289 292 294 294 289 288 285 285 287 293 293 nan nan nan nan nan nan 291 294 nan nan nan nan nan nan nan nan nan nan nan nan nan nan nan nan nan nan nan nan nan nan nan nan nan nan nan nan nan nan nan nan
252 256 262 265 265 262 261 259 258 264 267 265 263 263 263 266 267 274 278 281 282 282 281 280 282 282 282 283 282 281 283 285 286 287 288 290 292 290 286 285 287 289 290 291 292 291 294 293 nan nan nan nan nan nan nan nan nan nan nan nan nan nan nan nan nan nan nan nan nan nan nan nan nan nan nan nan nan nan nan nan nan nan nan nan nan
258 259 263 261 255 252 253 256 258 265 266 262 259 256 260 265 271 279 279 279 280 280 278 278 278 277 279 279 279 280 281 282 284 284 287 289 290 286 285 286 287 290 287 283 285 288 nan nan nan nan nan nan nan nan nan nan nan nan nan nan nan nan nan nan nan nan nan nan nan nan nan nan nan nan nan nan nan nan nan nan nan nan nan nan nan
259 258 262 261 251 250 254 256 256 259 262 260 258 257 260 266 276 277 275 275 276 276 276 277 276 278 280 281 279 280 281 282 285 287 288 288 287 284 285 286 284 281 278 285 286 281 285 289 290 nan nan nan nan nan nan nan nan nan nan nan nan nan nan nan nan nan nan nan nan nan nan nan nan nan nan nan nan nan nan nan nan nan nan nan nan
253 255 255 254 254 255 254 251 251 251 256 256 255 255 260 264 267 270 269 273 273 272 275 276 276 278 279 278 281 284 284 286 287 288 286 285 287 284 286 282 283 282 284 288 287 287 286 nan nan nan nan nan nan nan nan nan nan nan nan nan nan nan nan nan nan nan nan nan nan nan nan nan nan nan nan nan nan nan nan nan nan nan nan nan nan
264 260 251 253 250 248 252 252 251 251 251 251 251 253 255 259 263 265 269 269 272 273 275 276 278 280 278 279 284 287 287 287 288 287 284 282 284 283 282 282 286 288 291 290 288 290 289 292 296 300 nan nan nan nan nan nan nan nan nan nan nan nan nan nan nan nan nan nan nan nan nan nan nan nan nan nan nan nan nan nan nan nan nan nan nan
248 257 260 253 250 246 249 248 251 255 252 250 251 253 258 259 261 264 265 267 270 273 275 279 283 282 280 281 286 285 285 285 286 285 279 280 281 282 284 285 288 291 292 292 291 291 292 nan nan nan nan nan nan nan nan nan nan nan nan nan nan nan nan nan nan nan nan nan nan nan nan nan nan nan nan nan nan nan nan nan nan nan nan nan nan
263 259 259 258 248 250 252 249 248 251 249 251 250 251 256 257 257 262 265 269 273 277 282 285 287 285 284 284 284 280 281 281 281 279 280 282 282 284 285 285 285 286 287 289 292 291 295 297 295 299 nan nan nan nan nan nan nan nan nan nan nan nan nan nan nan nan nan nan nan nan nan nan nan nan nan nan nan nan nan nan nan nan nan nan nan
264 259 253 241 245 244 247 249 249 249 249 248 252 254 256 256 258 264 268 271 276 281 286 291 289 288 285 284 282 281 279 280 280 280 283 284 284 286 284 282 285 287 289 291 294 295 293 nan 301 nan nan nan nan nan nan nan nan nan nan nan nan nan nan nan nan nan nan nan nan nan nan nan nan nan nan nan nan nan nan nan nan nan nan nan nan
264 264 259 258 249 246 249 254 253 248 248 248 252 254 254 254 258 264 270 273 279 282 287 291 290 290 289 287 286 285 283 286 284 285 286 283 281 280 280 282 287 290 291 292 294 297 nan 301 304 nan nan nan nan nan nan nan nan nan nan nan nan nan nan nan nan nan nan nan nan nan nan nan nan nan nan nan nan nan nan nan nan nan nan nan nan
264 268 268 263 260 259 255 254 256 253 250 252 257 260 259 258 260 266 271 277 284 286 289 293 290 287 286 283 283 284 286 287 284 285 284 283 283 283 284 285 287 291 296 299 301 300 302 304 nan nan nan nan nan nan nan nan nan nan nan nan nan nan nan nan nan nan nan nan nan nan nan nan nan nan nan nan nan nan nan nan nan nan nan nan nan
261 261 258 259 258 257 260 256 253 252 249 256 260 261 263 262 263 268 273 282 287 288 287 284 284 283 283 283 281 279 278 281 284 282 280 281 280 284 288 289 292 296 298 301 302 nan 306 306 304 nan nan nan nan nan nan nan nan nan nan nan nan nan nan nan nan nan nan nan nan nan nan nan nan nan nan nan nan nan nan nan nan nan nan nan nan
251 252 248 253 259 259 255 253 247 249 250 254 257 259 261 263 265 269 277 284 285 286 286 285 282 281 280 276 276 281 283 281 280 281 280 279 281 285 288 290 293 295 299 299 299 298 nan 298 298 295 nan nan nan nan nan nan nan nan nan nan nan nan nan nan nan nan nan nan nan nan nan nan nan nan nan nan nan nan nan nan nan nan nan nan nan
247 245 249 248 249 250 253 251 249 252 254 256 259 260 262 264 268 273 277 281 282 284 283 284 282 281 276 276 279 279 279 277 277 279 281 282 281 284 287 289 290 292 295 292 290 294 297 294 nan nan nan nan nan nan nan nan nan nan nan nan nan nan nan nan nan nan nan nan nan nan nan nan nan nan nan nan nan nan nan nan nan nan nan nan nan
257 251 248 250 249 251 251 249 251 254 255 259 262 264 266 269 273 276 274 274 273 274 272 271 268 271 273 277 278 281 280 278 280 283 284 285 285 286 287 287 289 290 290 290 nan nan nan nan nan nan nan nan nan nan nan nan nan nan nan nan nan nan nan nan nan nan nan nan nan nan nan nan nan nan nan nan nan nan nan nan nan nan nan nan nan
258 253 246 246 247 249 250 252 252 255 256 261 265 267 269 272 275 274 276 274 274 275 274 273 270 267 265 265 268 275 276 281 284 284 286 288 289 289 290 291 288 288 289 290 nan 293 nan nan nan nan nan nan nan nan nan nan nan nan nan nan nan nan nan nan nan nan nan nan nan nan nan nan nan nan nan nan nan nan nan nan nan nan nan nan nan
251 253 250 246 244 250 252 254 254 258 254 258 260 263 267 272 267 267 269 272 276 277 274 270 271 272 271 273 272 275 276 276 283 287 288 289 291 293 292 289 289 288 288 289 291 nan nan nan nan nan nan nan nan nan nan nan nan nan nan nan nan nan nan nan nan nan nan nan nan nan nan nan nan nan nan nan nan nan nan nan nan nan nan nan nan
247 246 251 247 249 246 251 255 256 259 257 256 262 264 265 260 262 265 268 271 274 276 277 280 280 279 280 282 280 280 280 281 286 287 289 291 293 295 292 290 292 292 293 nan nan nan nan nan nan nan nan nan nan nan nan nan nan nan nan nan nan nan nan nan nan nan nan nan nan nan nan nan nan nan nan nan nan nan nan nan nan nan nan nan nan
238 244 241 243 246 247 250 254 255 260 259 259 260 259 260 258 260 265 268 274 276 280 278 277 283 285 283 283 285 285 283 284 288 288 290 291 293 293 292 295 296 297 298 nan nan nan nan nan nan nan nan nan nan nan nan nan nan nan nan nan nan nan nan nan nan nan nan nan nan nan nan nan nan nan nan nan nan nan nan nan nan nan nan nan nan
233 246 244 248 246 247 247 249 251 254 256 259 257 255 259 257 261 264 266 267 270 277 276 277 277 277 282 285 286 290 291 289 292 293 294 294 294 294 295 297 299 298 nan nan nan nan nan nan nan nan nan nan nan nan nan nan nan nan nan nan nan nan nan nan nan nan nan nan nan nan nan nan nan nan nan nan nan nan nan nan nan nan nan nan nan
234 236 234 241 246 252 252 249 250 248 249 251 252 254 262 259 260 265 268 272 276 280 278 279 281 282 285 288 289 294 294 295 295 294 295 297 297 295 294 293 294 nan nan nan nan nan nan nan nan nan nan nan nan nan nan nan nan nan nan nan nan nan nan nan nan nan nan nan nan nan nan nan nan nan nan nan nan nan nan nan nan nan nan nan nan
237 234 238 239 241 250 255 252 250 250 252 252 250 252 257 263 267 271 274 274 279 280 283 287 285 285 288 290 291 294 296 297 297 297 297 295 295 nan nan 291 294 296 295 nan nan nan nan nan nan nan nan nan nan nan nan nan nan nan nan nan nan nan nan nan nan nan nan nan nan nan nan nan nan nan nan nan nan nan nan nan nan nan nan nan nan
239 241 241 238 238 252 264 262 255 247 246 248 248 252 256 264 267 273 275 275 281 281 282 286 287 288 290 291 292 294 296 296 296 295 295 294 294 286 nan 297 296 294 296 nan nan nan nan nan nan nan nan nan nan nan nan nan nan nan nan nan nan nan nan nan nan nan nan nan nan nan nan nan nan nan nan nan nan nan nan nan nan nan nan nan nan